Lid_Strength_Index
0 0 0 0 1 1 1 1 1 2 2 2 2 2 2 1 1 2 2 2 2 2 2 1 1 1 2 5 6 1 -1 -1 1 2 3 4 6 6 9 8 7 9 8 7 6 6 6
2 2 2 1 1 1 0 1 1 1 2 2 2 2 2 2 2 2 2 2 2 2 2 1 1 1 3 9 1 1 1 1 2 2 3 3 5 5 7 8 9 7 7 7 7 7 7
3 3 3 4 4 3 3 3 3 2 2 2 2 2 2 2 2 2 2 2 2 2 2 2 1 2 5 6 1 0 1 2 1 2 4 3 3 5 6 9 6 7 10 9 8 8 8
4 4 4 5 5 4 5 4 4 4 4 4 4 4 4 3 3 3 3 3 3 2 2 2 1 2 7 1 0 2 1 2 1 1 2 2 2 5 7 6 8 10 10 14 9 8 7
5 5 5 5 5 4 5 5 5 5 5 5 5 5 5 5 5 5 4 3 3 2 2 2 3 4 8 1 3 1 1 3 2 2 2 2 4 7 7 11 13 12 16 14 11 7 8
6 5 5 5 5 5 4 5 6 6 5 5 5 5 5 5 5 5 5 4 3 2 2 2 3 6 5 6 3 2 1 2 4 4 5 6 7 10 10 12 17 15 15 13 13 9 9
5 5 5 5 6 5 5 5 5 5 5 6 6 6 6 6 5 6 5 3 6 6 5 7 7 7 5 3 2 3 2 4 4 6 11 8 12 14 12 11 11 11 12 13 11 9 10
6 6 6 6 6 6 5 5 6 5 5 5 6 6 6 6 6 6 6 6 5 6 9 5 5 5 4 3 7 5 3 7 8 12 9 11 14 10 9 9 11 12 13 14 11 9 10
6 6 6 6 5 5 6 6 6 6 6 6 6 6 6 6 6 6 6 6 5 5 10 8 5 6 5 4 7 7 5 6 9 11 11 13 11 8 10 11 13 13 14 13 14 11 10
5 5 5 5 5 5 5 5 5 5 5 5 6 6 6 6 7 7 7 8 6 5 12 12 9 6 5 5 9 4 4 7 9 12 10 11 9 10 11 13 11 15 10 11 13 14 18
4 4 5 5 5 4 5 5 5 5 5 4 5 5 5 5 7 8 8 6 5 5 20 10 10 4 5 8 7 7 3 6 11 11 11 13 11 12 13 12 10 13 10 11 12 14 15
4 4 4 3 3 4 4 3 3 4 4 4 4 4 5 5 6 6 5 6 5 14 20 12 9 9 10 9 8 7 7 5 6 10 10 11 7 9 10 9 9 9 11 12 12 14 20
4 3 4 3 3 3 3 3 3 3 3 3 3 3 4 4 8 4 5 8 14 18 11 13 12 10 10 11 11 10 11 12 14 16 16 13 12 9 9 12 10 11 14 20 21 21 21
4 3 2 2 2 2 2 2 2 2 2 3 3 3 5 4 4 4 6 11 18 13 13 10 11 11 13 11 11 11 12 14 11 12 14 17 18 12 9 12 13 13 14 19 23 22 19
3 2 1 1 1 1 1 1 1 1 1 2 3 6 7 6 5 5 10 17 17 13 11 12 11 13 14 12 12 12 13 13 12 13 16 17 17 12 12 12 10 14 16 12 17 16 20
2 1 0 -0 -0 -0 -0 -0 0 0 1 1 5 7 8 5 4 6 12 15 14 10 10 11 14 12 15 13 14 14 14 14 14 14 12 16 17 13 13 12 11 12 11 18 17 22 23
1 -0 -0 -1 -1 -1 -1 -1 -1 -0 -0 1 6 9 7 4 3 9 16 14 11 8 8 11 12 13 13 13 13 14 14 12 12 13 13 15 16 15 13 15 16 15 15 15 16 17 21
0 -0 -0 -1 -1 -1 -1 -1 -1 -1 0 2 6 11 5 2 10 10 14 11 9 9 7 9 10 11 12 12 13 13 14 12 9 10 13 13 14 17 16 13 13 15 15 16 18 20 18
0 -0 -0 -1 -1 -1 -1 -1 -1 -1 -1 3 7 7 4 3 13 13 11 10 9 10 9 10 10 10 10 12 14 13 12 9 10 11 12 12 15 18 16 15 13 15 14 14 15 15 17
0 -0 -1 -1 -1 -1 -1 -1 -1 -1 -1 2 6 11 8 5 7 10 11 10 10 7 9 8 9 8 10 12 10 12 12 10 9 10 9 9 13 15 18 16 14 16 14 13 15 18 18
1 0 -0 -1 -1 -1 -1 -1 -1 -1 -1 1 6 9 8 12 10 9 9 10 11 11 9 8 10 10 11 14 12 13 11 11 10 9 9 11 16 14 15 13 13 13 14 14 15 14 17
1 0 -1 -1 -1 -1 -1 -1 -1 -1 -1 3 7 8 6 8 7 9 9 11 11 10 9 10 11 9 10 12 11 13 11 12 12 10 10 9 15 13 15 14 13 15 14 13 13 12 13
0 -0 -1 -1 -1 -1 -1 -1 -1 -1 -0 4 4 4 6 8 9 10 10 9 9 8 8 7 8 9 12 10 8 8 8 8 9 11 12 12 13 15 17 13 13 17 14 13 12 11 11
1 -0 -1 -1 -1 -1 -1 -1 -1 -1 -0 1 3 4 8 11 9 9 9 8 9 8 9 8 7 9 7 4 5 6 7 8 8 9 8 12 12 13 16 14 20 14 11 11 12 11 9
1 -0 -1 -1 -1 -1 -1 -1 -1 -1 -1 1 1 4 7 10 8 9 8 9 8 7 8 8 7 6 5 7 10 12 12 11 10 9 9 9 11 15 17 16 14 13 11 12 12 12 9
1 0 -0 -1 -1 -1 -1 -1 -1 -1 -1 1 1 1 5 9 10 7 8 8 10 9 9 8 5 4 5 9 11 15 16 13 13 12 9 9 10 13 15 18 19 12 10 9 9 14 9
2 1 0 -1 -1 -1 -1 -1 -1 -1 -1 1 1 1 4 8 6 6 8 9 7 8 10 8 7 7 6 11 13 14 15 11 15 14 14 14 13 15 15 16 14 10 8 8 14 12 8
3 2 1 -0 -1 -1 -1 -1 -1 -1 -1 1 2 0 3 6 6 5 4 6 7 7 10 8 9 8 9 12 13 13 13 12 13 12 13 14 15 15 14 17 18 8 8 11 9 7 8
3 2 2 1 0 -0 -1 -1 -1 -1 -0 1 4 1 1 4 6 3 3 2 3 4 6 7 8 8 9 11 11 11 13 12 12 15 10 14 11 13 12 13 9 7 8 7 6 7 7